カタログに戻る

STARLINK-36419

運用中通信SSO
NORAD 67584·PAYLOAD·🇺🇸 United States

打ち上げ Jan 25, 2026 から Vandenberg Space Force Base

Loading…

次のパス (今後24時間)

TLE

最新Source: CelesTrak SupGP

元期: Sep 14, 2026, 22:56 UTC

1 67584C 26016Z   26257.95604167  .00009453  00000+0  29351-3 0  2575
2 67584  97.2844 316.7408 0001069  93.1933 264.4518 15.33428571    19

AllMySatでSTARLINK-36419をリアルタイム追跡

Download on the App Store